Simultaneous Nadir Overpasses (SNOs) Predictions

Prediction of SNOs between FY3D and TERRA Satellite Orbit:

Table of predicted SNOs for the next 14.0 days since TLE Epoch: 1/20/2024
Index Date (FY3D) Time (FY3D) Lat,Lon (FY3D) SZA (FY3D ) Date (TERRA) Time (TERRA) Lat,Lon (TERRA) SZA (TERRA ) Distance(km) Time Diff (sec)
1 01/22/2024 02:10:02 -74.85, -32.49 85.40 01/22/2024 02:10:54 -74.83, -32.54 85.43 2.91 52
2 01/22/2024 03:00:47 74.80, 134.96 94.54 01/22/2024 03:00:15 74.81, 135.07 94.55 3.35 32
3 01/24/2024 14:13:54 74.83, -33.35 94.00 01/24/2024 14:14:08 74.84, -33.36 94.00 0.93 14
4 01/24/2024 15:04:38 -74.77, 134.12 86.07 01/24/2024 15:03:32 -74.77, 134.14 86.07 0.46 66
5 01/27/2024 01:27:01 74.86, 158.32 93.43 01/27/2024 01:28:00 74.88, 158.25 93.44 2.87 59
6 01/27/2024 02:17:45 -74.80, -34.20 86.65 01/27/2024 02:17:24 -74.83, -34.23 86.63 2.61 21
7 01/29/2024 13:30:53 -74.89, 157.32 87.20 01/29/2024 13:31:15 -74.90, 157.45 87.20 3.73 22
8 01/29/2024 14:21:37 74.81, -35.14 92.71 01/29/2024 14:20:37 74.80, -35.13 92.70 1.08 60
9 02/01/2024 00:43:59 -74.94, -11.06 87.83 02/01/2024 00:45:05 -74.93, -10.96 87.84 3.11 66
10 02/01/2024 01:34:43 74.86, 156.48 92.09 02/01/2024 01:34:26 74.88, 156.58 92.10 3.55 17



Historial Predications of SNOs between FY3D and TERRA
